Regional Weather Roundup
Issued by NWS Sterling, VA

Home | Current Version | Previous Version | Graphics & Text | Print | Product List | Glossary On
Versions: 1 2 3 4 5 6 7 8 9 10 11 12 13 14 15 16 17 18 19 20 21 22 23 24 25 26 27 28 29 30 31 32 33 34 35 36 37 38 39 40 41 42 43 44 45 46 47 48 49 50
000
ASUS41 KLWX 161511
RWRLWX

REGIONAL WEATHER ROUNDUP
NATIONAL WEATHER SERVICE BALTIMORE MD/WASHINGTON DC
1000 AM EST TUE JAN 16 2018

Note: "FAIR" indicates few or no clouds below 12,000 feet
with no significant weather and/or obstructions to visibility.
 TC=TEMPERATURE CELSIUS

 * =Non NWS site. Station does not report precipitation (e.g. rain,
    snow, etc.), thunder, or fog.

DCZ001-MDZ009-015-VAZ040>042-051-053>054-161600-
WASHINGTON METRO

CITY           SKY/WX    TMP DP  RH WIND       PRES   REMARKS
WASHINGTON NAT CLOUDY    32  27  81 SE3       30.50S
DULLES         PTSUNNY   30  26  85 VRB3      30.48R
ANDREWS AFB    DRIZZLE   30  28  92 CALM      30.47F
FT BELVOIR     PTSUNNY   31  25  79 SW3       30.49S
COLLEGE PARK*  CLOUDY    29  25  84 CALM      30.49F
LEESBURG*      CLOUDY    30  30 100 S7        30.47F WCI  23
MANASSAS*      CLOUDY    30  27  86 CALM      30.49S
GAITHERSBURG*  CLOUDY    32  29  88 SE6       30.46F WCI  26

$$

MDZ006>007-011-014-161600-
BALTIMORE METRO

CITY           SKY/WX    TMP DP  RH WIND       PRES   REMARKS
BWI AIRPORT    FRZ DRZL  30  30 100 SW3       30.48F VSB 1
MD SCIENCE CTR   N/A     32  30  92 MISG      30.50S
MARTIN STATE   CLOUDY    32  30  93 CALM      30.51S FOG
ANNAPOLIS      CLOUDY    32  30  92 E3        30.49F FOG
FORT MEADE*    CLOUDY    30  28  93 S3        30.51F

$$

MDZ012-015-019>023-161600-
MARYLAND EASTERN SHORE

CITY           SKY/WX    TMP DP  RH WIND       PRES   REMARKS
OCEAN CITY     FAIR      38  36  92 N9        30.48S WCI  31
SALISBURY      FAIR      34  31  88 CALM      30.48S
BAY BRIDGE AP* CLOUDY    32  27  80 NW3       30.50S HAZE
CAMBRIDGE*     CLOUDY    34  27  75 NW5       30.49F WCI  30
EASTON*        SUNNY     36  27  69 CALM      30.52F

$$

MDZ017>025-161600-
SOUTHERN MARYLAND

CITY           SKY/WX    TMP DP  RH WIND       PRES   REMARKS
PATUXENT RIVER NOT AVBL
ST INIGOES     FOG       32  31  96 CALM      30.49S VSB 1
LEONARDTOWN*   CLOUDY    30  30 100 E3        30.50F

$$

MDZ003>005-161600-
NORTH CENTRAL MARYLAND

CITY           SKY/WX    TMP DP  RH WIND       PRES   REMARKS
FREDERICK*     CLOUDY    32  25  74 CALM      30.49F FOG
HAGERSTOWN APT CLOUDY    30  24  78 CALM      30.42F HAZE
WESTMINSTER*   CLOUDY    30  28  93 SE6       30.43F WCI  24

$$

MDZ501>502-161600-
WESTERN MARYLAND

CITY           SKY/WX    TMP DP  RH WIND       PRES   REMARKS
OAKLAND*       CLOUDY    23  23 100 CALM      30.25S
CUMBERLAND*    FAIR      28  19  69 CALM      30.46R

$$

VAZ025>031-161600-
SHENANDOAH VALLEY

CITY           SKY/WX    TMP DP  RH WIND       PRES   REMARKS
WINCHESTER*      N/A    N/A N/A N/A MISG        N/A
FRONT ROYAL*   PTSUNNY   30  21  69 MISG      30.41S
LURAY*         CLOUDY    32  18  55 CALM      30.39F
NEW MARKET*    CLOUDY    28  13  53 CALM      30.39S
STAUNTON*      FAIR      28  13  52 CALM      30.40S
WAYNESBORO*    FAIR      30  14  52 CALM      30.37S

$$

WVZ021-048>050-054>055-161600-
EASTERN WEST VIRGINIA PANHANDLE

CITY           SKY/WX    TMP DP  RH WIND       PRES   REMARKS
MARTINSBURG    CLOUDY    28  23  81 CALM      30.43S
PETERSBURG*    PTSUNNY   24  16  71 CALM      30.39S

$$

VAZ036>039-050-161600-
CENTRAL FOOTHILLS

CITY           SKY/WX    TMP DP  RH WIND       PRES   REMARKS
CHARLOTTESVILL FAIR      32  18  56 CALM      30.44R
CULPEPER*      CLOUDY    28  25  91 CALM      30.49S FOG
ORANGE*        FAIR      28  23  80 CALM      30.46S
GORDONSVILLE*  FAIR      29  23  77 CALM      30.46R
WARRENTON*     CLOUDY    27  24  88 CALM      30.48R FOG

$$

VAZ055>057-161600-
NORTH AND CENTRAL PIEDMONT

CITY           SKY/WX    TMP DP  RH WIND       PRES   REMARKS
FREDERICKSBRG* CLOUDY    28  28 100 E3        30.49S
STAFFORD*      PTSUNNY   29  29 100 CALM      30.53R FOG

$$

NCZ024-NYZ072-PAZ021-071-VAZ022-071-161600-
OTHER REGIONAL OBSERVATIONS

CITY           SKY/WX    TMP DP  RH WIND       PRES   REMARKS
NEW YORK CITY  CLOUDY    32  25  75 E3        30.52S
PHILADELPHIA   PTSUNNY   33  26  75 NE5       30.51R WCI  29
PITTSBURGH     LGT SNOW  26  24  92 S5        30.35R FOG     WCI  20
ROANOKE        FAIR      30  16  56 CALM      30.43R
RICHMOND       CLOUDY    28  26  92 E3        30.49S FOG
RALEIGH        FAIR      34  19  54 CALM      30.49R

$$

ANZ530>537-161600-
MARINE OBSERVATIONS

STATION/POSITION TIME  TEMP    WIND        PRES
                       AIR SEA DIR/SP/G
                 (UTC) (F)     (DEG/KT/KT) (MB)
THOMAS PT LIGHT  1500   30 32  290/  3/  3   N/A
BALT KEY BRIDGE  1448   29      CALM  /  1 1032.8F
COVE POINT       1448   29     150/  1/  3 1033.1F
LEWISETTA        1448   30 33   CALM  /  3 1032.6S
SOLOMONS ISLAND  1448   30 34  100/  2/  4 1032.3F
PINEY POINT      1442           CALM  /  1   N/A

$$




USA.gov is the U.S. government's official web portal to all federal, state and local government web resources and services.